This demonstration page uses our WeatherBlox Daily Observations layout. Learn more.

Left ArrowRight Arrow

34.16533, -84.80231

Hourly Observations for August 16, 2019

Temp ( °F °C ) Dew Point ( °F °C ) Humidity (%) Winds ( mph kmh ) Pressure ( in mb ) Visibility ( mi km ) Precip ( " mm )
12:53 am 00:53 Clear 69 20.6 66 18.9 90 90 Calm 29.94 1014 10 16 0.00 0.00
1:53 am 01:53 Clear 68 20 65 18.3 90 90 Calm 29.93 1014 10 16 0.00 0.00
2:53 am 02:53 Clear 68 20 65 18.3 90 90 Calm 29.93 1013 10 16 0.00 0.00
3:53 am 03:53 Clear 67 19.4 64 17.8 91 91 Calm 29.93 1014 10 16 0.00 0.00
4:53 am 04:53 Clear 67 19.4 64 17.8 91 91 Calm 29.94 1014 10 16 0.00 0.00
5:53 am 05:53 Clear 67 19.4 64 17.8 91 91 Calm 29.95 1014 10 16 0.00 0.00
6:53 am 06:53 Clear 67 19.4 64 17.8 91 91 Calm 29.96 1015 10 16 0.00 0.00
7:53 am 07:53 Sunny 69 20.6 65 18.3 87 87 Calm 29.97 1015 10 16 0.00 0.00
8:53 am 08:53 Sunny 72 22.2 66 18.9 82 82 Calm 29.99 1016 10 16 0.00 0.00
9:53 am 09:53 Sunny 77 25 67 19.4 71 71 Calm 29.99 1016 10 16 0.00 0.00
10:53 am 10:53 Sunny 80 26.7 68 20 67 67 Calm 29.99 1016 10 16 0.00 0.00
11:53 am 11:53 Sunny 85 29.4 69 20.6 59 59 Calm 29.99 1016 10 16 0.00 0.00
12:53 pm 12:53 Sunny 88 31.1 68 20 52 52 VRB 3 6 29.98 1015 10 16 0.00 0.00
1:53 pm 13:53 Sunny 90 32.2 67 19.4 47 47 VRB 3 6 29.97 1015 10 16 0.00 0.00
2:53 pm 14:53 Sunny 92 33.3 66 18.9 43 43 N 3 6 29.96 1015 10 16 0.00 0.00
3:53 pm 15:53 Sunny 93 33.9 66 18.9 41 41 VRB 3 6 29.93 1014 10 16 0.00 0.00
4:53 pm 16:53 Sunny 94 34.4 65 18.3 38 38 Calm 29.92 1013 10 16 0.00 0.00
5:53 pm 17:53 Sunny 94 34.4 63 17.2 36 36 NNW 5 7 29.91 1013 10 16 0.00 0.00
6:53 pm 18:53 Sunny 92 33.3 55 12.8 29 29 VRB 7 11 29.91 1013 10 16 0.00 0.00
7:53 pm 19:53 Sunny 88 31.1 60 15.6 39 39 NNW 3 6 29.91 1013 10 16 0.00 0.00
8:53 pm 20:53 Clear 76 24.4 66 18.9 72 72 Calm 29.93 1013 10 16 0.00 0.00
9:53 pm 21:53 Clear 72 22.2 65 18.3 79 79 Calm 29.94 1014 10 16 0.00 0.00
10:53 pm 22:53 Clear 73 22.8 65 18.3 76 76 Calm 29.95 1014 10 16 0.00 0.00
11:53 pm 23:53 Clear 70 21.1 64 17.8 82 82 Calm 29.96 1014 10 16 0.00 0.00

Powered by AerisWeather